Voltar ao catálogo

SPNEX

AtivoCiênciaSSO
NORAD 67000·PAYLOAD·🇨🇳 China
Este nome de satélite ainda não foi confirmado por fontes oficiais.

Lançado Dec 10, 2025 de Jiuquan Satellite Launch Center

Loading…

Próximas Passagens (próximas 24 horas)

TLE

AtualizadoSource: Space-Track

Época: Sep 14, 2026, 10:38 UTC

1 67000U 25292H   26257.44340164  .00004322  00000-0  28087-3 0  9990
2 67000  97.6310 332.9795 0015575  63.4295 296.8527 15.08447976 41781

Acompanhe SPNEX em tempo real com AllMySat

Download on the App Store